This is the latest recevied weather packets stored in our database for station/object OK1ALX-6. If no packets are shown the sender has not sent any weather packets the latest 10 day(s).
| Time | Temp. | Humidity | Pressure | Rain* | Wind** | Luminosity | Snow |
|---|---|---|---|---|---|---|---|
| 1788608403 | 20.56° C | 49% | 1024.3 hPa | 0 mm | - | 567 W/m² | - |
| 1788607803 | 20.56° C | 52% | 1024.1 hPa | 0 mm | - | 585 W/m² | - |
| 1788607203 | 20.56° C | 49% | 1024.4 hPa | 0 mm | - | 641 W/m² | - |
| 1788606603 | 20° C | 55% | 1024.5 hPa | 0 mm | - | 636 W/m² | - |
| 1788606003 | 19.44° C | 57% | 1024.7 hPa | 0 mm | - | 281 W/m² | - |
| 1788605403 | 20° C | 53% | 1024.6 hPa | 0 mm | - | 150 W/m² | - |
| 1788604803 | 20.56° C | 52% | 1024.3 hPa | 0 mm | - | 245 W/m² | - |
| 1788604203 | 20° C | 51% | 1024.4 hPa | 0 mm | - | 562 W/m² | - |
| 1788603603 | 20.56° C | 53% | 1024.1 hPa | 0 mm | - | 194 W/m² | - |
| 1788603003 | 20° C | 53% | 1024.3 hPa | 0 mm | - | 649 W/m² | - |
| 1788602404 | 20° C | 56% | 1024.5 hPa | 0 mm | - | 656 W/m² | - |
| 1788601803 | 19.44° C | 58% | 1024.3 hPa | 0 mm | - | 163 W/m² | - |
| 1788601203 | 19.44° C | 59% | 1024.4 hPa | 0 mm | - | 692 W/m² | - |
| 1788600603 | 19.44° C | 64% | 1024.4 hPa | 0 mm | - | 626 W/m² | - |
| 1788600003 | 19.44° C | 65% | 1024.5 hPa | 0 mm | - | 600 W/m² | - |
| 1788599403 | 19.44° C | 68% | 1024.2 hPa | 0 mm | - | 656 W/m² | - |
| 1788598803 | 18.89° C | 68% | 1024.2 hPa | 0 mm | - | 555 W/m² | - |
| 1788598203 | 18.89° C | 69% | 1024.5 hPa | 0 mm | - | 170 W/m² | - |
| 1788597603 | 18.33° C | 71% | 1024.3 hPa | 0 mm | - | 580 W/m² | - |
| 1788597003 | 17.78° C | 71% | 1024.4 hPa | 0 mm | - | 541 W/m² | - |
| 1788596403 | 18.33° C | 70% | 1024.3 hPa | 0 mm | - | 540 W/m² | - |
| 1788595803 | 18.33° C | 73% | 1024.1 hPa | 0 mm | - | 449 W/m² | - |
| 1788595203 | 17.78° C | 72% | 1024 hPa | 0 mm | - | 414 W/m² | - |
| 1788594605 | 17.78° C | 75% | 1024 hPa | 0 mm | - | 360 W/m² | - |
| 1788594003 | 17.22° C | 76% | 1023.9 hPa | 0 mm | - | 339 W/m² | - |
* Rain latest hour (hover to see other rain measurements)
** Current wind speed in m/s (hover to see current wind gust speed)